星链-2182 (STARLINK-2182 )

导读 | 豆包AI

STARLINK-2182是美国SpaceX星链项目中的一颗卫星,于2021年3月4日发射升空,属于星链第一代低轨道互联网通讯卫星。该卫星是SpaceX打造全球巨型卫星星座的组成部分,部署在近地轨道,可提供全球宽带互联网接入服务,为网络基础设施薄弱的地区提供高速网络接入支持,服务全球覆盖的卫星互联网通信体系。

基本信息
目录编号:
47764
目录名称:
STARLINK-2182
国际标识:
2021-017AU
轨道中心:
EARTH
卫星名称:
星链-2182
卫星全名:
星链-2182 (STARLINK-2182 )
卫星状态:
已陨落 最后检测时间 2025-02-01
发射日期:
2021-03-04 UTC
国别 :
美国 (US)
星等 :
--
轨道信息
数据来源 国际轨道数据
星历时间: 2025-02-02T03:21:19+0800
轨道信息已过期452天
半长轴: 6532.752km
偏心率: 0.000828
轨道倾角: 53.023°
近地点辐角 21.939°
升交点赤经 193.300°
平近点角 73.990°
近地点: 149.207km
远地点: 160.027km
周期: 87.580分钟
每日圈数: 16.442149
详细信息
固有亮度:
5
最大亮度:
2.5
卫星平台:
Starlink V1.0
覆盖范围:
全球
运营商:
太空探索技术公司
运营商所在国:
美国
制造商(研发单位):
太空探索技术公司
制造商所在国:
美国
使用方式:
暂无
卫星简介
星链(Starlink)计划是由太空探索技术公司(SpaceX)提出的一个巨型低轨卫星互联网星座项目,计划在2019年至2024年间在太空搭建由约1.2万颗卫星组成的“星链”网络,其中1584颗将部署在地球上空550千米处的近地轨道,并从2020年开始工作。该卫星仍在工作。